KANOPUS-V 5 (43876 NORAD) Tracking and Keplerian Element Data

This shows tracking and keplerian element data for the satellite.

Feedback or suggestion? Click here.




ElementValue
Catalog43876
NameKANOPUS-V 5
Epoch Orbit253
Epoch Day26.17611896
Epoch Year2019
RAAN296.0247
Inclination97.4677
Eccentricity0.0003489
Argument of Perigee1.3604
Mean Anonmoly358.7639
Mean Motion15.194552
Decay Rate1.95E-06
L11 43876U 18111A 19026.17611896 .00000195 00000-0 12406-4 0 9999
L22 43876 97.4677 296.0247 0003489 1.3604 358.7639 15.19455200 2531

Live tracking and technical data element details for KANOPUS-V 5 (NORAD 43876). KANOPUS-V 5 can be tracked NOW for your location showing map with azimuth and elevation plus other details from your city location.

Track the satellite on the map from your city or location and see movement details for azimuth, elevation, latitude, longitude, range, height, and movement on the map or in text.







IsCatalogInMostPopularTable: catalog: 43876, numindb: 76
Update: records affected: 1



GetName: 43876 KANOPUS-V 5

Hit Count: updated at: Fri, 19 Jul 2019 23:56:58 GMT